TimeEST,TemperatureF,Dew PointF,Humidity,Sea Level PressureIn,VisibilityMPH,Wind Direction,Wind SpeedMPH,Gust SpeedMPH,PrecipitationIn,Events,Conditions,WindDirDegrees,DateUTC
12:53 AM,28.9,18.0,64,30.40,10.0,South,8.1,-,N/A,,Clear,190,2013-11-14 05:53:00
1:53 AM,28.9,18.0,64,30.38,10.0,SSW,5.8,-,N/A,,Clear,210,2013-11-14 06:53:00
2:53 AM,28.0,18.0,66,30.38,10.0,South,5.8,-,N/A,,Clear,190,2013-11-14 07:53:00
3:53 AM,27.0,18.0,69,30.37,10.0,SSW,5.8,-,N/A,,Clear,200,2013-11-14 08:53:00
4:53 AM,26.1,17.1,69,30.37,10.0,SSW,5.8,-,N/A,,Clear,200,2013-11-14 09:53:00
5:53 AM,27.0,18.0,69,30.36,10.0,South,6.9,-,N/A,,Clear,190,2013-11-14 10:53:00
6:53 AM,25.0,17.1,72,30.37,10.0,South,5.8,-,N/A,,Clear,180,2013-11-14 11:53:00
7:53 AM,28.0,19.0,69,30.37,10.0,South,10.4,-,N/A,,Clear,180,2013-11-14 12:53:00
8:53 AM,30.9,19.9,64,30.37,10.0,South,8.1,-,N/A,,Clear,190,2013-11-14 13:53:00
9:53 AM,35.1,21.0,57,30.37,10.0,SSW,5.8,-,N/A,,Clear,210,2013-11-14 14:53:00
10:53 AM,39.0,21.9,50,30.35,10.0,SSW,10.4,-,N/A,,Clear,200,2013-11-14 15:53:00
11:53 AM,43.0,19.9,40,30.32,10.0,SSW,12.7,17.3,N/A,,Clear,210,2013-11-14 16:53:00
12:53 PM,46.0,21.0,37,30.28,10.0,SSW,11.5,19.6,N/A,,Clear,210,2013-11-14 17:53:00
1:53 PM,48.0,17.1,29,30.26,10.0,SSW,11.5,19.6,N/A,,Clear,210,2013-11-14 18:53:00
2:53 PM,50.0,18.0,28,30.24,10.0,SSW,10.4,-,N/A,,Clear,210,2013-11-14 19:53:00
3:53 PM,50.0,19.9,31,30.22,10.0,South,9.2,-,N/A,,Clear,190,2013-11-14 20:53:00
4:53 PM,46.9,18.0,32,30.22,10.0,South,8.1,-,N/A,,Clear,190,2013-11-14 21:53:00
5:53 PM,44.1,16.0,32,30.21,10.0,South,6.9,-,N/A,,Clear,190,2013-11-14 22:53:00
6:53 PM,42.1,16.0,35,30.21,10.0,South,8.1,-,N/A,,Clear,180,2013-11-14 23:53:00
7:53 PM,41.0,18.0,40,30.21,10.0,South,8.1,-,N/A,,Clear,180,2013-11-15 00:53:00
8:53 PM,39.0,18.0,43,30.20,10.0,South,6.9,-,N/A,,Clear,180,2013-11-15 01:53:00
9:53 PM,37.9,18.0,45,30.19,10.0,South,5.8,-,N/A,,Clear,180,2013-11-15 02:53:00
10:53 PM,39.0,17.1,41,30.20,10.0,South,3.5,-,N/A,,Clear,190,2013-11-15 03:53:00
11:53 PM,39.0,17.1,41,30.19,10.0,Calm,Calm,-,N/A,,Clear,0,2013-11-15 04:53:00